| time (UTC) | temp F | wind direction | speed knots | gust knots | rain 1hr in | rain 24hr in | rain mn in | humidity % | barometer mb |
| 20260504080902 | 42 | 353 | 0.9 | 1.7 | 0.00 | 0.00 | 0.00 | 81 | 1017.1 |
| 20260504080402 | 42 | 327 | 0.0 | 1.7 | 0.00 | 0.00 | 0.00 | 80 | 1017.1 |
| 20260504070402 | 43 | 0 | 0.0 | 0.9 | 0.00 | 0.00 | 0.00 | 75 | 1017.1 |
| 20260504050402 | 47 | 307 | 0.9 | 1.7 | 0.00 | 0.00 | 0.00 | 66 | 1017.9 |
| 20260504050127 | 47 | 317 | 0.9 | 1.7 | 0.00 | 0.00 | 0.00 | 66 | 1018.0 |
| 20260504045402 | 47 | 49 | 0.9 | 1.7 | 0.00 | 0.00 | 0.00 | 65 | 1017.9 |
| 20260504044902 | 47 | 281 | 0.9 | 1.7 | 0.00 | 0.00 | 0.00 | 66 | 1017.9 |
| 20260504044623 | 47 | 318 | 0.9 | 1.7 | 0.00 | 0.00 | 0.00 | 65 | 1017.7 |
| 20260504043620 | 47 | 289 | 0.0 | 1.7 | 0.00 | 0.00 | 0.00 | 63 | 1017.6 |
| 20260504043123 | 47 | 262 | 0.0 | 0.9 | 0.00 | 0.00 | 0.00 | 65 | 1017.5 |
| 20260504042402 | 47 | 0 | 0.0 | 0.9 | 0.00 | 0.00 | 0.00 | 64 | 1017.5 |
| 20260504041902 | 48 | 0 | 0.0 | 0.9 | 0.00 | 0.00 | 0.00 | 65 | 1017.5 |
| 20260504041402 | 48 | 262 | 0.9 | 0.9 | 0.00 | 0.00 | 0.00 | 63 | 1017.5 |
| 20260504041119 | 48 | 235 | 0.0 | 0.9 | 0.00 | 0.00 | 0.00 | 62 | 1017.4 |
| 20260504040402 | 49 | 295 | 0.9 | 1.7 | 0.00 | 0.00 | 0.00 | 63 | 1017.2 |
| 20260504040122 | 49 | 302 | 0.9 | 1.7 | 0.00 | 0.00 | 0.00 | 63 | 1017.4 |
| 20260504034902 | 50 | 0 | 0.0 | 0.9 | 0.00 | 0.00 | 0.00 | 55 | 1017.2 |
| 20260504034402 | 50 | 236 | 0.0 | 0.9 | 0.00 | 0.00 | 0.00 | 55 | 1017.1 |
| 20260504033902 | 50 | 290 | 0.0 | 0.9 | 0.00 | 0.00 | 0.00 | 54 | 1017.0 |
| 20260504033120 | 50 | 0 | 0.0 | 1.7 | 0.00 | 0.00 | 0.00 | 53 | 1017.1 |
| 20260504032401 | 50 | 282 | 0.0 | 0.9 | 0.00 | 0.00 | 0.00 | 53 | 1017.2 |
| 20260504032125 | 50 | 318 | 0.0 | 1.7 | 0.00 | 0.00 | 0.00 | 55 | 1017.4 |
| 20260504030901 | 51 | 250 | 0.0 | 0.9 | 0.00 | 0.00 | 0.00 | 55 | 1017.2 |
| 20260504030401 | 51 | 0 | 0.0 | 0.9 | 0.00 | 0.00 | 0.00 | 54 | 1017.1 |
| 20260504030130 | 52 | 0 | 0.0 | 1.7 | 0.00 | 0.00 | 0.00 | 53 | 1017.2 |
| 20260504025401 | 52 | 261 | 0.9 | 1.7 | 0.00 | 0.00 | 0.00 | 50 | 1017.2 |
| 20260504025121 | 52 | 281 | 0.9 | 1.7 | 0.00 | 0.00 | 0.00 | 52 | 1017.4 |
| 20260504024401 | 52 | 272 | 0.9 | 0.9 | 0.00 | 0.00 | 0.00 | 52 | 1017.5 |
| 20260504024119 | 52 | 300 | 0.9 | 1.7 | 0.00 | 0.00 | 0.00 | 52 | 1017.5 |
| 20260504023401 | 53 | 329 | 0.9 | 1.7 | 0.00 | 0.00 | 0.00 | 52 | 1017.4 |
| 20260504022903 | 53 | 256 | 0.9 | 1.7 | 0.00 | 0.00 | 0.00 | 51 | 1017.4 |
| 20260504022402 | 53 | 0 | 0.0 | 1.7 | 0.00 | 0.00 | 0.00 | 52 | 1017.2 |
| 20260504021902 | 53 | 266 | 0.9 | 1.7 | 0.00 | 0.00 | 0.00 | 51 | 1017.1 |
| 20260504021402 | 53 | 279 | 0.9 | 1.7 | 0.00 | 0.00 | 0.00 | 50 | 1017.0 |
| 20260504020902 | 53 | 0 | 0.0 | 1.7 | 0.00 | 0.00 | 0.00 | 49 | 1017.0 |
| 20260504020403 | 54 | 279 | 0.0 | 1.7 | 0.00 | 0.00 | 0.00 | 49 | 1017.0 |
| 20260504015902 | 54 | 258 | 0.9 | 1.7 | 0.00 | 0.00 | 0.00 | 48 | 1016.9 |
| 20260504015402 | 54 | 252 | 0.9 | 1.7 | 0.00 | 0.00 | 0.00 | 47 | 1016.9 |
| 20260504014902 | 54 | 257 | 0.9 | 1.7 | 0.00 | 0.00 | 0.00 | 45 | 1016.8 |
| 20260504014625 | 54 | 326 | 0.9 | 1.7 | 0.00 | 0.00 | 0.00 | 43 | 1016.8 |
| 20260504013903 | 54 | 0 | 0.0 | 1.7 | 0.00 | 0.00 | 0.00 | 43 | 1016.7 |
| 20260504013402 | 54 | 0 | 0.0 | 1.7 | 0.00 | 0.00 | 0.00 | 43 | 1016.7 |
| 20260504012902 | 54 | 274 | 0.0 | 1.7 | 0.00 | 0.00 | 0.00 | 43 | 1016.7 |
| 20260504012403 | 55 | 288 | 0.0 | 1.7 | 0.00 | 0.00 | 0.00 | 43 | 1016.6 |
| 20260504011902 | 55 | 294 | 0.9 | 1.7 | 0.00 | 0.00 | 0.00 | 43 | 1016.6 |
| 20260504011403 | 55 | 0 | 0.9 | 1.7 | 0.00 | 0.00 | 0.00 | 42 | 1016.5 |
| 20260504010902 | 55 | 355 | 0.9 | 1.7 | 0.00 | 0.00 | 0.00 | 42 | 1016.5 |
| 20260504010131 | 55 | 0 | 0.0 | 1.7 | 0.00 | 0.00 | 0.00 | 42 | 1016.4 |
| 20260504005403 | 55 | 292 | 0.0 | 1.7 | 0.00 | 0.00 | 0.00 | 42 | 1016.3 |
| 20260504004903 | 56 | 280 | 0.0 | 1.7 | 0.00 | 0.00 | 0.00 | 43 | 1016.2 |
| 20260504004621 | 56 | 354 | 0.0 | 0.9 | 0.00 | 0.00 | 0.00 | 44 | 1016.1 |
| 20260504003901 | 56 | 0 | 0.0 | 0.9 | 0.00 | 0.00 | 0.00 | 44 | 1016.1 |
| 20260504003403 | 57 | 0 | 0.9 | 1.7 | 0.00 | 0.00 | 0.00 | 44 | 1016.1 |
| 20260504002902 | 57 | 10 | 0.9 | 2.6 | 0.00 | 0.00 | 0.00 | 42 | 1016.1 |
| 20260504002402 | 58 | 28 | 0.9 | 2.6 | 0.00 | 0.00 | 0.00 | 40 | 1016.1 |
| 20260504001902 | 58 | 347 | 0.9 | 1.7 | 0.00 | 0.00 | 0.00 | 38 | 1016.1 |
| 20260504001401 | 58 | 0 | 0.0 | 1.7 | 0.00 | 0.00 | 0.00 | 38 | 1016.0 |
| 20260504000902 | 59 | 300 | 0.0 | 1.7 | 0.00 | 0.00 | 0.00 | 38 | 1016.0 |
| 20260504000402 | 59 | 279 | 0.0 | 1.7 | 0.00 | 0.00 | 0.00 | 38 | 1015.8 |
| 20260503235902 | 59 | 0 | 0.0 | 0.9 | 0.00 | 0.00 | 0.00 | 36 | 1015.8 |
| 20260503235402 | 60 | 0 | 0.0 | 1.7 | 0.00 | 0.00 | 0.00 | 36 | 1016.0 |
| 20260503235125 | 60 | 286 | 0.9 | 1.7 | 0.00 | 0.00 | 0.00 | 36 | 1016.0 |
| 20260503234623 | 60 | 0 | 0.9 | 1.7 | 0.00 | 0.00 | 0.00 | 35 | 1015.8 |
| 20260503233901 | 60 | 277 | 0.0 | 1.7 | 0.00 | 0.00 | 0.00 | 35 | 1015.8 |
| 20260503233402 | 60 | 296 | 0.0 | 0.9 | 0.00 | 0.00 | 0.00 | 34 | 1015.7 |
| 20260503232901 | 60 | 0 | 0.0 | 1.7 | 0.00 | 0.00 | 0.00 | 34 | 1015.7 |
| 20260503232402 | 61 | 316 | 0.0 | 1.7 | 0.00 | 0.00 | 0.00 | 34 | 1015.7 |
| 20260503231902 | 61 | 0 | 0.0 | 2.6 | 0.00 | 0.00 | 0.00 | 33 | 1015.7 |
| 20260503231626 | 61 | 294 | 0.0 | 2.6 | 0.00 | 0.00 | 0.00 | 32 | 1015.7 |
| 20260503230902 | 61 | 327 | 0.0 | 1.7 | 0.00 | 0.00 | 0.00 | 34 | 1015.7 |
| 20260503230401 | 61 | 0 | 0.0 | 1.7 | 0.00 | 0.00 | 0.00 | 33 | 1015.7 |
| 20260503225901 | 61 | 318 | 0.0 | 1.7 | 0.00 | 0.00 | 0.00 | 34 | 1015.7 |
| 20260503225401 | 62 | 210 | 0.0 | 1.7 | 0.00 | 0.00 | 0.00 | 34 | 1015.7 |
| 20260503224902 | 62 | 0 | 0.0 | 1.7 | 0.00 | 0.00 | 0.00 | 32 | 1015.7 |
| 20260503224403 | 62 | 279 | 0.9 | 1.7 | 0.00 | 0.00 | 0.00 | 33 | 1015.7 |
| 20260503223902 | 62 | 234 | 0.0 | 1.7 | 0.00 | 0.00 | 0.00 | 33 | 1015.7 |
| 20260503222902 | 62 | 0 | 0.9 | 1.7 | 0.00 | 0.00 | 0.00 | 35 | 1015.7 |
| 20260503222402 | 63 | 228 | 0.9 | 1.7 | 0.00 | 0.00 | 0.00 | 35 | 1015.7 |
| 20260503221902 | 63 | 320 | 0.0 | 1.7 | 0.00 | 0.00 | 0.00 | 36 | 1015.7 |
| 20260503221402 | 63 | 280 | 0.0 | 1.7 | 0.00 | 0.00 | 0.00 | 34 | 1015.7 |
| 20260503220902 | 63 | 246 | 0.0 | 1.7 | 0.00 | 0.00 | 0.00 | 34 | 1015.7 |
| 20260503220403 | 64 | 0 | 0.0 | 1.7 | 0.00 | 0.00 | 0.00 | 34 | 1015.8 |
| 20260503215903 | 64 | 0 | 0.0 | 1.7 | 0.00 | 0.00 | 0.00 | 32 | 1015.8 |
| 20260503215402 | 64 | 43 | 0.0 | 2.6 | 0.00 | 0.00 | 0.00 | 36 | 1015.8 |
| 20260503214902 | 64 | 0 | 0.0 | 2.6 | 0.00 | 0.00 | 0.00 | 34 | 1015.8 |
| 20260503214402 | 64 | 0 | 0.0 | 2.6 | 0.00 | 0.00 | 0.00 | 36 | 1015.8 |
| 20260503214128 | 64 | 0 | 0.0 | 2.6 | 0.00 | 0.00 | 0.00 | 35 | 1015.8 |
| 20260503213402 | 64 | 0 | 0.9 | 4.3 | 0.00 | 0.00 | 0.00 | 34 | 1015.8 |
| 20260503211403 | 65 | 53 | 0.0 | 1.7 | 0.00 | 0.00 | 0.00 | 38 | 1016.1 |
| 20260503210902 | 65 | 0 | 0.0 | 1.7 | 0.00 | 0.00 | 0.00 | 38 | 1016.1 |
| 20260503210402 | 65 | 272 | 0.9 | 2.6 | 0.00 | 0.00 | 0.00 | 38 | 1016.2 |
| 20260503205902 | 64 | 0 | 0.9 | 3.5 | 0.00 | 0.00 | 0.00 | 38 | 1016.2 |
| 20260503205619 | 64 | 44 | 0.9 | 3.5 | 0.00 | 0.00 | 0.00 | 38 | 1016.2 |
| 20260503204902 | 64 | 176 | 0.9 | 3.5 | 0.00 | 0.00 | 0.00 | 41 | 1016.2 |
| 20260503204402 | 64 | 17 | 0.9 | 2.6 | 0.00 | 0.00 | 0.00 | 40 | 1016.3 |
| 20260503203902 | 64 | 319 | 0.9 | 2.6 | 0.00 | 0.00 | 0.00 | 41 | 1016.3 |
| 20260503203620 | 64 | 325 | 0.9 | 2.6 | 0.00 | 0.00 | 0.00 | 41 | 1016.4 |
| 20260503202902 | 63 | 300 | 0.9 | 2.6 | 0.00 | 0.00 | 0.00 | 41 | 1016.3 |
| 20260503202402 | 63 | 0 | 0.9 | 3.5 | 0.00 | 0.00 | 0.00 | 40 | 1016.4 |
| 20260503201902 | 63 | 0 | 0.9 | 3.5 | 0.00 | 0.00 | 0.00 | 40 | 1016.4 |
| 20260503201624 | 64 | 147 | 0.9 | 2.6 | 0.00 | 0.00 | 0.00 | 42 | 1016.6 |
| 20260503200902 | 64 | 195 | 0.9 | 2.6 | 0.00 | 0.00 | 0.00 | 41 | 1016.6 |
| 20260503200402 | 64 | 176 | 0.9 | 3.5 | 0.00 | 0.00 | 0.00 | 40 | 1016.7 |
| 20260503195902 | 64 | 292 | 0.9 | 3.5 | 0.00 | 0.00 | 0.00 | 40 | 1016.7 |
| 20260503195401 | 64 | 306 | 0.9 | 2.6 | 0.00 | 0.00 | 0.00 | 40 | 1016.8 |
| 20260503194401 | 64 | 0 | 0.9 | 3.5 | 0.00 | 0.00 | 0.00 | 41 | 1016.8 |
| 20260503193901 | 64 | 185 | 1.7 | 4.3 | 0.00 | 0.00 | 0.00 | 42 | 1016.8 |
| 20260503193401 | 65 | 172 | 1.7 | 4.3 | 0.00 | 0.00 | 0.00 | 41 | 1016.8 |
| 20260503192902 | 65 | 328 | 0.9 | 3.5 | 0.00 | 0.00 | 0.00 | 41 | 1017.5 |
| 20260503192402 | 65 | 198 | 1.7 | 4.3 | 0.00 | 0.00 | 0.00 | 40 | 1018.0 |
| 20260503191902 | 65 | 349 | 1.7 | 4.3 | 0.00 | 0.00 | 0.00 | 40 | 1017.9 |
| 20260503191401 | 65 | 344 | 0.9 | 2.6 | 0.00 | 0.00 | 0.00 | 40 | 1018.2 |
| 20260503190901 | 65 | 179 | 0.9 | 3.5 | 0.00 | 0.00 | 0.00 | 40 | 1018.3 |
| 20260503190626 | 66 | 190 | 0.9 | 3.5 | 0.00 | 0.00 | 0.00 | 39 | 1018.4 |
| 20260503185901 | 66 | 199 | 0.9 | 3.5 | 0.00 | 0.00 | 0.00 | 38 | 1018.5 |
| 20260503185401 | 66 | 153 | 0.9 | 2.6 | 0.00 | 0.00 | 0.00 | 39 | 1018.5 |
| 20260503184902 | 65 | 58 | 0.9 | 2.6 | 0.00 | 0.00 | 0.00 | 40 | 1018.7 |
| 20260503184127 | 64 | 2 | 0.9 | 3.5 | 0.00 | 0.00 | 0.00 | 41 | 1019.2 |
| 20260503183403 | 64 | 216 | 0.9 | 3.5 | 0.00 | 0.00 | 0.00 | 42 | 1018.5 |
| 20260503182621 | 62 | 0 | 1.7 | 3.5 | 0.00 | 0.00 | 0.00 | 42 | 1018.5 |
| 20260503181402 | 62 | 178 | 0.9 | 3.5 | 0.00 | 0.00 | 0.00 | 41 | 1018.6 |
| 20260503181121 | 62 | 159 | 1.7 | 3.5 | 0.00 | 0.00 | 0.00 | 42 | 1018.6 |
| 20260503180402 | 62 | 312 | 1.7 | 4.3 | 0.00 | 0.00 | 0.00 | 42 | 1018.9 |
| 20260503175902 | 61 | 0 | 1.7 | 4.3 | 0.00 | 0.00 | 0.00 | 42 | 1018.5 |
| 20260503175402 | 61 | 37 | 0.9 | 2.6 | 0.00 | 0.00 | 0.00 | 44 | 1018.5 |
| 20260503174903 | 60 | 218 | 0.9 | 2.6 | 0.00 | 0.00 | 0.00 | 44 | 1018.3 |
| 20260503174402 | 60 | 222 | 1.7 | 3.5 | 0.00 | 0.00 | 0.00 | 43 | 1018.5 |
| 20260503174122 | 60 | 199 | 0.9 | 3.5 | 0.00 | 0.00 | 0.00 | 44 | 1018.4 |
| 20260503173402 | 60 | 171 | 1.7 | 2.6 | 0.00 | 0.00 | 0.00 | 43 | 1018.9 |
| 20260503172902 | 60 | 180 | 1.7 | 2.6 | 0.00 | 0.00 | 0.00 | 44 | 1019.4 |
| 20260503172402 | 60 | 129 | 1.7 | 4.3 | 0.00 | 0.00 | 0.00 | 46 | 1020.0 |
| 20260503172122 | 59 | 188 | 1.7 | 4.3 | 0.00 | 0.00 | 0.00 | 44 | 1019.7 |
| 20260503171402 | 60 | 256 | 0.9 | 3.5 | 0.00 | 0.00 | 0.00 | 43 | 1019.6 |
| 20260503170901 | 59 | 151 | 0.9 | 2.6 | 0.00 | 0.00 | 0.00 | 45 | 1019.8 |
| 20260503170625 | 59 | 0 | 0.9 | 2.6 | 0.00 | 0.00 | 0.00 | 45 | 1019.8 |
| 20260503150902 | 53 | 0 | 0.9 | 2.6 | 0.00 | 0.01 | 0.00 | 59 | 1020.3 |
| 20260503150623 | 53 | 56 | 0.9 | 3.5 | 0.00 | 0.01 | 0.00 | 60 | 1020.3 |
| 20260503150121 | 52 | 178 | 0.9 | 3.5 | 0.00 | 0.01 | 0.00 | 59 | 1020.3 |
| 20260503131120 | 44 | 0 | 0.9 | 1.7 | 0.00 | 0.01 | 0.00 | 83 | 1020.1 |
| 20260503130619 | 44 | 18 | 0.9 | 1.7 | 0.00 | 0.01 | 0.00 | 83 | 1020.1 |
| 20260503130126 | 43 | 270 | 0.9 | 1.7 | 0.00 | 0.01 | 0.00 | 85 | 1020.0 |
| 20260503110401 | 37 | 265 | 0.0 | 0.9 | 0.00 | 0.01 | 0.00 | 91 | 1018.3 |